Probability
34 29 25 18 6 0 0 0 0 0 0 0 0 0 0 0 0 0 0 0 0 0 0 0 0 0 0 0 0 0 0 1 2 3 3 1 0 0 0 0 0 0 0 0 0 0 0 1 3
30 27 23 14 4 0 0 0 0 0 0 0 0 0 0 0 0 0 0 0 0 0 0 0 0 0 0 0 0 0 0 0 1 2 2 1 0 0 0 0 1 0 0 0 0 1 1 2 3
24 22 16 7 1 0 0 0 0 0 0 0 0 0 0 0 0 0 0 0 0 0 0 0 0 0 0 0 0 0 0 0 0 1 1 1 0 0 0 1 2 1 0 0 1 2 3 4 5
18 15 8 2 0 0 0 0 0 0 0 0 0 0 0 0 0 0 0 0 0 0 0 0 0 0 0 0 0 0 0 0 0 0 0 0 0 0 0 1 2 2 1 1 2 3 3 5 6
11 7 3 0 0 0 0 0 0 0 0 0 0 0 0 0 0 0 0 0 0 0 0 1 1 0 0 0 0 0 0 0 0 0 0 0 0 0 0 0 1 2 3 3 3 3 4 5 7
3 2 0 0 0 0 0 0 0 0 0 0 0 0 0 0 0 0 0 0 0 0 0 2 3 2 0 0 0 0 0 0 0 0 0 0 0 0 0 1 2 3 5 5 4 3 3 5 7
0 0 0 0 0 0 0 0 0 0 0 0 0 0 0 0 0 0 0 0 0 0 0 2 4 3 1 0 0 0 0 0 0 0 0 0 0 0 0 2 3 5 6 6 5 4 3 4 6
0 0 0 0 0 0 0 0 0 0 0 0 0 0 0 0 0 0 0 0 0 0 0 1 2 2 1 0 0 0 0 0 0 0 0 0 1 1 1 2 5 6 6 6 6 4 3 4 6
0 0 0 0 0 0 0 0 0 0 1 1 0 0 1 0 0 0 0 0 0 0 0 1 1 1 0 0 1 1 1 1 0 0 1 1 2 2 2 3 5 6 6 6 5 4 4 5 5
0 0 0 0 0 0 0 0 0 1 2 2 2 3 3 1 0 0 0 0 0 0 1 2 2 1 0 0 0 1 1 1 0 0 1 2 3 3 3 3 4 5 5 5 3 3 4 4 4
0 0 0 0 0 0 0 0 0 1 2 3 5 7 6 2 0 0 0 0 0 0 1 2 2 1 0 0 0 0 1 1 0 0 1 2 3 3 3 3 3 4 3 2 1 2 3 3 3
0 0 0 0 0 0 0 0 0 0 1 3 8 10 7 2 0 0 0 0 0 0 0 1 1 1 0 0 0 0 0 0 0 0 0 1 2 2 2 2 2 2 1 0 1 2 3 3 2
0 0 0 0 0 0 0 0 0 0 1 4 9 10 7 3 1 0 0 0 0 0 0 1 3 3 1 0 0 0 0 0 0 0 0 0 1 1 1 1 1 1 0 1 1 3 3 3 2
0 0 0 0 0 0 0 0 0 0 2 6 9 9 8 5 1 0 0 0 0 1 0 1 4 5 3 1 0 0 0 0 0 0 0 0 0 0 0 0 0 0 0 1 2 2 3 3 3
0 0 0 0 0 0 0 0 0 0 2 6 8 8 8 5 1 0 0 0 0 0 0 0 2 5 6 3 1 0 0 0 0 0 0 0 0 0 0 0 0 0 0 1 1 1 1 2 3
0 0 0 0 0 0 0 0 0 0 2 5 7 8 7 4 1 0 0 0 0 1 1 1 2 4 7 6 3 2 1 0 0 0 0 0 0 0 0 0 0 0 0 0 0 0 1 1 1
0 0 0 0 0 0 0 1 1 2 3 5 6 7 6 3 1 1 1 0 1 2 4 4 3 5 6 7 5 4 4 2 1 1 0 0 0 0 0 0 0 0 0 0 0 1 1 1 1
0 0 0 0 0 0 0 1 2 3 3 5 6 6 5 3 3 3 2 1 1 3 5 6 6 7 8 8 7 7 7 6 4 2 1 1 0 0 0 1 1 1 1 1 1 1 2 1 1
0 0 0 0 0 0 0 1 3 4 3 4 7 7 5 3 4 5 5 4 2 3 5 7 8 10 12 12 12 11 10 8 6 4 3 2 1 1 1 2 2 2 2 2 1 1 1 1 0
0 0 0 0 0 0 0 1 4 4 4 4 6 7 5 4 5 6 6 5 3 4 6 8 9 11 12 12 12 10 9 9 8 6 5 4 3 3 2 2 2 2 3 3 4 3 2 1 1
0 0 0 0 0 0 0 1 3 4 3 4 5 4 4 4 4 6 6 4 3 4 6 8 10 11 11 10 9 8 8 9 8 6 4 4 5 4 2 3 3 2 3 5 7 6 5 4 4
0 0 0 0 0 0 0 1 2 3 3 3 3 2 2 4 5 6 7 5 3 3 5 7 10 13 13 10 8 8 8 9 9 6 3 3 3 3 3 3 4 4 5 7 9 8 8 7 5
0 0 0 0 0 0 0 0 1 2 2 3 2 1 2 5 6 7 8 7 5 4 4 6 11 16 17 12 9 10 10 9 9 7 4 3 2 3 4 4 6 6 7 9 10 9 8 7 6
1 1 0 0 0 0 0 0 0 1 1 2 3 3 4 7 9 9 9 8 7 6 6 9 14 18 19 15 11 10 11 12 12 10 8 6 5 6 8 9 11 11 10 11 11 11 9 8 7
2 1 0 0 0 0 0 0 1 2 2 3 5 6 7 9 10 11 11 11 12 11 10 14 21 22 20 16 13 11 12 15 14 12 10 9 8 9 12 14 15 15 13 12 13 14 12 10 9
2 1 0 0 0 1 1 1 1 3 5 6 6 7 9 12 13 14 14 16 19 19 18 21 27 27 22 18 16 13 13 13 13 11 9 8 8 8 10 11 12 14 14 14 17 18 15 12 11
1 0 0 0 1 1 2 1 2 4 6 8 9 11 14 17 18 18 17 19 23 25 24 26 29 29 25 22 20 17 13 11 10 10 9 8 8 7 6 6 8 12 15 17 20 20 17 14 12
1 1 1 1 1 2 2 1 2 4 8 11 16 19 22 25 25 24 21 22 25 28 29 30 30 29 28 26 24 20 17 15 14 13 12 11 9 8 7 7 10 12 15 17 19 19 18 16 15
4 4 3 2 2 2 1 1 3 6 9 14 20 24 29 31 32 30 28 28 30 32 34 35 33 30 29 29 27 25 23 22 20 18 16 15 12 10 10 11 11 12 13 15 16 17 18 19 19
6 6 5 3 2 2 2 2 4 7 10 15 19 25 31 34 35 35 34 34 34 35 38 38 35 32 30 29 29 28 27 26 24 20 19 17 15 13 12 12 11 11 13 15 16 17 19 22 21
Wind_Speed
13 10 7 6 4 7 13 11 10 9 8 8 8 6 7 9 9 9 7 7 6 7 9 10 9 9 9 9 10 11 12 12 12 12 12 12 12 11 11 11 11 12 12 13 14 14 14 14 14
10 7 7 5 4 10 12 10 11 11 8 7 7 7 8 10 9 9 8 7 7 8 9 10 10 9 10 10 10 10 11 11 11 11 11 11 11 11 11 10 11 11 12 13 14 14 14 13 13
8 7 6 2 11 12 12 10 11 10 7 5 6 7 7 8 8 7 8 8 8 9 9 12 9 10 10 10 10 10 10 10 11 11 10 10 10 10 10 10 11 11 12 13 13 14 13 13 13
6 6 3 7 15 13 11 9 9 8 8 6 6 9 9 7 6 9 10 9 9 9 10 13 9 10 10 9 9 10 10 10 10 10 10 10 10 10 9 10 11 11 12 12 13 13 13 13 12
7 4 5 12 14 12 10 8 5 6 7 7 7 11 11 8 9 11 10 8 9 9 10 13 10 10 10 9 9 9 9 9 9 9 9 9 9 9 9 10 11 11 12 12 12 13 12 12 11
5 1 7 11 13 9 9 7 7 9 10 8 9 11 10 9 10 10 9 8 8 8 9 12 11 9 9 9 9 9 9 9 9 9 9 9 9 9 10 11 11 11 11 11 12 12 11 11 10
4 4 9 11 10 10 7 5 6 8 9 8 7 10 10 10 10 9 9 8 7 7 8 8 10 10 10 9 8 8 9 9 9 8 8 9 8 9 10 11 11 11 11 11 11 11 10 10 9
4 1 8 9 9 10 8 6 6 6 9 8 4 7 11 12 10 10 9 8 7 6 7 7 7 8 8 9 9 8 8 8 8 8 8 8 8 9 10 10 10 10 10 10 10 10 9 9 8
6 1 8 9 7 9 8 8 7 6 9 7 5 7 13 14 12 10 9 8 7 6 5 5 6 6 6 7 9 8 8 7 7 7 8 7 6 8 8 10 10 9 9 9 9 9 9 8 8
3 5 10 7 6 8 8 7 8 7 9 8 9 11 15 14 12 10 9 9 8 7 6 4 5 6 6 5 6 4 5 5 3 4 6 5 4 4 6 10 8 8 8 8 8 8 9 7 6
0 5 6 5 6 7 9 8 7 7 7 8 12 15 15 13 11 9 8 8 8 7 6 6 5 4 4 4 3 3 3 3 4 5 4 3 3 4 4 5 6 6 6 6 7 7 5 3 2
2 4 3 4 6 7 8 8 7 4 6 8 13 16 15 13 11 9 8 7 7 7 6 6 6 4 3 2 3 3 2 3 3 4 3 3 2 2 3 2 3 3 3 3 2 2 3 2 2
3 4 4 4 6 6 7 7 6 6 7 11 14 15 14 12 11 9 7 7 7 7 6 6 5 4 4 3 2 3 2 2 3 2 3 2 2 2 3 2 2 2 3 4 3 2 3 2 3
3 5 6 6 7 7 7 7 6 8 10 13 14 14 13 12 11 10 8 8 7 7 7 6 6 6 5 4 3 2 2 2 2 2 3 2 2 2 2 3 2 2 2 2 2 2 2 2 2
5 6 7 7 6 6 7 7 6 10 12 13 13 12 12 11 11 10 9 8 8 8 7 7 7 6 6 5 4 3 2 3 2 2 2 2 2 2 2 2 2 2 2 3 2 2 2 2 3
7 8 6 7 6 6 9 4 9 12 13 13 13 12 11 11 11 10 9 9 8 8 8 7 6 7 6 5 4 3 3 3 2 2 2 3 2 2 2 2 2 2 2 3 2 2 2 2 2
9 7 4 7 7 6 8 2 10 12 13 13 13 12 12 11 11 10 10 10 9 9 8 8 7 7 7 6 5 4 3 3 3 3 3 3 3 3 3 2 2 3 2 2 2 2 2 2 1
7 6 5 5 7 8 8 4 9 12 12 12 13 12 12 12 12 11 11 10 9 9 9 9 9 8 7 6 5 4 4 4 3 3 3 4 4 4 3 3 3 3 2 2 1 1 1 1 1
6 7 5 3 4 7 8 7 7 11 12 13 13 13 13 12 12 11 11 10 10 10 10 10 9 8 7 5 5 5 4 4 3 3 4 4 4 4 4 3 3 3 2 2 2 2 2 2 2
9 9 7 4 4 6 6 6 6 10 13 12 13 13 14 13 12 12 12 12 12 11 11 11 10 9 8 6 4 3 3 3 3 2 2 3 4 4 4 4 3 3 2 3 3 3 2 2 2
11 10 8 5 5 7 7 8 9 10 11 11 12 13 13 13 13 13 13 13 12 12 12 10 10 10 9 8 6 4 3 3 3 3 3 3 3 3 3 3 3 3 4 3 3 4 4 3 3
12 9 8 7 8 6 8 7 7 10 11 12 13 13 13 13 13 13 14 14 14 13 12 11 11 10 9 9 7 7 5 4 4 3 3 3 3 4 4 4 4 4 3 3 4 4 4 4 4
9 6 8 9 10 9 8 9 4 8 10 11 12 12 12 12 13 13 14 14 13 13 12 11 11 10 10 9 8 8 6 4 3 3 3 3 4 4 4 4 4 4 4 4 4 3 5 4 4
7 7 7 9 11 12 10 10 7 6 7 8 9 10 11 12 12 12 12 12 12 12 11 11 11 11 10 10 9 8 7 6 5 5 4 4 4 4 5 5 4 4 4 4 4 4 5 4 4
12 11 9 11 11 10 7 9 7 3 3 5 6 8 10 10 11 11 12 12 11 11 11 11 11 11 10 10 9 8 7 7 7 6 5 5 4 4 4 4 4 4 4 5 5 5 5 5 5
15 16 13 11 10 9 8 10 6 3 2 4 5 5 7 9 10 10 10 11 11 12 12 11 11 11 10 9 8 7 7 6 5 5 5 5 3 3 3 4 4 5 5 5 5 5 5 5 5
15 15 14 13 13 11 8 8 7 6 6 6 5 6 7 8 8 9 9 10 10 11 11 11 11 10 10 9 8 7 7 6 5 5 5 4 4 4 4 5 5 5 5 5 5 4 5 5 6
11 11 10 12 12 12 11 12 8 8 8 6 6 6 6 7 7 7 8 8 9 9 9 10 10 10 10 9 8 7 7 6 5 5 5 4 4 4 5 5 5 5 5 5 6 5 5 6 6
11 12 11 11 11 12 11 7 3 5 6 6 6 6 6 6 7 7 7 7 7 8 9 9 9 9 9 8 8 6 6 6 6 5 5 5 5 5 6 6 6 6 6 6 5 6 6 7 6
12 12 13 12 11 11 12 5 2 2 4 4 4 5 5 5 5 6 7 7 7 7 8 8 8 9 8 8 8 7 6 6 6 6 5 5 5 6 6 6 6 7 6 6 6 7 7 7 7
Wind_Direction
167 179 210 234 213 76 66 65 69 76 75 69 69 60 60 43 37 76 97 106 106 106 104 112 102 104 103 103 104 105 104 105 107 108 107 108 107 108 107 107 108 111 113 116 114 113 114 115 114
170 186 227 239 60 74 69 65 69 68 84 96 84 77 74 67 63 97 113 112 119 108 109 102 104 105 104 103 104 104 105 106 106 106 108 109 110 111 111 111 111 113 115 118 119 117 117 117 116
179 227 262 55 57 62 72 73 82 90 96 93 87 65 57 72 88 102 111 128 121 104 105 104 108 105 105 104 103 101 103 107 107 108 110 112 113 115 115 116 115 116 117 118 120 120 120 119 118
212 224 227 68 70 65 74 86 100 105 94 84 97 88 77 69 84 105 120 130 117 113 110 105 108 106 106 104 105 103 102 106 110 111 111 112 112 114 115 116 116 118 117 117 119 121 121 120 120
242 252 88 77 74 75 78 87 96 86 86 94 96 97 91 83 99 114 125 126 118 113 107 109 110 108 108 108 107 107 105 106 110 111 110 110 113 113 115 117 117 118 117 115 118 120 121 122 123
243 266 67 76 81 84 91 99 95 90 98 104 108 105 93 111 118 122 123 121 115 114 111 111 118 111 112 111 110 109 106 105 105 106 110 111 114 116 119 118 118 119 118 117 119 121 122 121 123
311 41 68 75 89 92 89 95 93 102 108 106 111 106 114 124 123 126 122 120 117 115 113 118 127 127 124 116 113 112 107 106 106 107 110 113 115 117 119 118 121 122 122 122 123 123 123 122 124
298 18 79 76 80 89 108 106 88 95 96 110 122 116 129 133 136 133 129 125 117 114 113 118 120 120 134 131 122 116 114 113 113 113 116 120 124 125 126 130 121 123 125 125 126 128 128 127 126
258 51 71 70 75 101 125 123 108 101 116 117 92 97 122 134 142 142 138 135 132 126 122 122 121 124 125 124 125 131 129 125 134 132 133 151 148 136 141 112 117 124 128 128 129 134 135 140 140
260 57 67 66 83 111 130 126 130 139 133 126 117 114 128 143 152 153 148 146 144 139 136 125 126 131 129 121 125 136 139 132 138 121 134 140 121 119 114 113 118 122 129 135 135 145 161 185 155
301 61 78 93 106 122 133 133 142 147 140 144 144 143 148 154 159 157 152 148 142 142 142 142 137 128 127 126 129 125 124 126 130 114 118 118 134 136 137 137 142 146 153 150 146 172 173 159 125
138 92 95 102 124 135 132 134 142 132 95 130 145 150 155 162 164 164 157 151 146 150 151 148 142 140 138 123 126 142 139 134 125 122 144 136 137 133 127 141 140 149 142 129 146 148 147 140 146
160 114 110 121 142 134 136 135 129 126 118 135 145 155 162 166 165 164 158 158 159 164 163 157 154 154 155 155 173 141 135 133 125 127 137 143 146 147 142 141 147 154 131 146 165 166 151 166 182
127 133 131 139 140 149 151 142 147 132 143 147 155 164 168 170 170 167 171 174 174 176 174 169 175 171 172 173 171 157 153 147 149 146 143 166 164 147 159 160 160 152 145 143 162 174 177 191 186
167 158 147 150 161 164 173 169 161 143 154 159 165 169 171 175 176 179 180 182 180 182 182 181 183 181 184 185 182 173 174 166 163 146 151 178 183 160 183 168 168 152 146 149 184 181 194 201 191
195 202 185 155 176 175 218 164 144 157 167 169 172 175 179 182 185 183 183 185 182 184 186 192 195 185 186 191 196 185 178 172 171 172 170 185 188 183 203 189 173 170 186 178 181 194 195 193 195
207 220 202 156 186 190 225 177 145 169 177 177 180 182 185 186 194 189 189 187 185 188 190 192 199 195 194 190 195 197 190 194 189 190 190 189 196 193 201 203 173 203 204 199 214 171 201 191 191
219 231 218 194 180 209 222 207 161 180 188 186 187 189 192 194 196 193 193 190 188 190 192 193 194 196 196 193 192 200 201 201 202 203 200 201 200 196 204 201 192 211 206 198 209 199 193 206 208
248 249 237 210 176 220 229 227 186 183 194 194 194 196 199 202 194 190 193 192 192 193 194 196 198 190 194 195 200 196 200 205 204 205 200 206 211 203 207 218 196 211 210 208 204 204 199 205 201
232 234 229 199 181 234 239 234 205 192 203 203 201 202 204 201 195 192 194 194 196 195 195 194 198 194 196 194 203 210 207 201 198 204 194 220 217 217 207 209 216 205 204 210 217 214 229 221 204
228 237 236 216 190 216 240 224 207 200 206 208 211 211 209 205 199 193 195 197 197 197 197 196 196 193 196 193 193 188 190 202 189 197 197 211 216 218 226 215 225 223 222 215 218 218 226 233 224
226 227 238 224 223 219 231 250 201 198 202 208 212 211 210 205 203 197 196 199 198 197 194 194 192 192 191 195 200 200 205 206 198 200 189 194 204 211 215 217 221 225 221 214 221 213 223 230 225
234 219 225 231 241 250 225 255 224 190 210 209 209 210 208 203 202 198 197 197 197 193 190 187 187 189 190 197 199 209 215 207 198 194 188 207 201 207 215 218 221 220 219 217 226 224 227 226 228
191 189 205 228 239 240 239 252 247 213 224 218 204 203 203 201 198 197 195 192 193 191 188 184 183 188 190 196 202 211 214 210 205 203 204 210 205 204 205 212 220 220 220 215 217 218 218 228 233
203 212 217 221 227 235 224 245 253 268 242 238 214 197 195 194 193 192 191 188 188 188 186 183 181 185 188 195 202 207 214 212 209 213 210 220 216 212 208 217 219 222 219 218 213 212 222 222 226
213 228 236 241 242 229 205 236 242 240 225 231 218 194 186 185 187 189 188 187 185 185 184 182 181 183 184 190 197 202 208 215 212 212 219 219 226 226 212 217 222 225 224 220 212 218 215 221 226
215 229 245 250 255 257 230 230 232 221 216 212 198 183 181 178 179 182 181 184 183 183 183 183 180 180 181 185 188 195 205 214 212 208 218 221 219 220 213 220 223 228 228 225 219 221 222 222 224
244 231 231 241 242 248 238 233 231 211 207 199 191 181 174 167 170 171 173 179 180 179 178 180 182 182 183 184 192 191 195 199 204 216 220 224 222 224 221 224 225 227 228 227 226 220 215 218 221
202 216 231 239 248 252 252 235 217 218 219 205 193 176 163 163 161 160 160 166 170 172 174 178 179 182 184 185 187 188 190 190 195 207 213 215 220 219 221 224 225 227 229 229 228 231 224 223 223
223 224 223 233 235 248 266 253 116 199 209 198 178 154 149 150 149 149 151 156 163 166 168 170 175 182 183 182 181 183 187 187 194 201 207 210 214 220 220 223 225 227 227 225 225 228 228 227 225